Powrót do katalogu

STARLINK-35439

AktywnyŁącznośćVLEO
NORAD 66431·PAYLOAD·🇺🇸 United States

Wystrzelony Nov 11, 2025 z Cape Canaveral Space Force Station

Loading…

Następne Przeloty (najbliższe 24 godziny)

TLE

ŚwieżeSource: CelesTrak SupGP

Epoka: Sep 15, 2026, 03:56 UTC

1 66431C 25259K   26258.16437500 -.00016747  00000+0 -60649-3 0  2584
2 66431  43.0003 284.0737 0001310 264.8908  19.6923 15.27591985    18

Śledź STARLINK-35439 w czasie rzeczywistym z AllMySat

Download on the App Store